Temperature
15 16 16 16 16 16 16 16 16 16 16 16 15 15 15 15 15 15 15 15 15 15 15 15 15 15 15 15 15 15 15 15 15 15 15 15 15 15 15 15 15 15 15
16 16 16 16 15 15 16 16 15 15 15 15 15 15 15 15 15 15 15 15 15 15 15 15 15 15 15 15 15 15 15 15 14 14 14 14 14 14 15 15 15 15 15
16 16 15 16 15 15 15 15 15 15 15 15 15 15 15 15 15 15 15 15 15 15 15 15 15 15 15 15 15 15 14 14 14 14 14 14 14 14 14 14 14 14 14
16 15 15 15 15 15 15 15 15 15 15 15 15 15 15 15 15 15 15 15 15 15 15 15 14 14 14 15 15 14 14 14 14 14 14 14 14 14 14 14 14 14 14
15 15 15 15 15 15 15 15 15 15 15 15 15 15 15 15 15 15 15 14 15 15 15 15 14 14 14 14 14 14 14 14 14 14 14 14 14 14 14 14 14 14 14
15 15 15 15 15 15 15 15 15 15 15 15 14 14 14 14 14 14 14 14 14 14 14 14 14 14 14 14 14 14 14 14 13 13 13 14 13 13 14 14 14 14 14
15 15 15 14 14 14 14 14 14 14 14 14 14 14 14 14 14 14 14 14 14 14 14 14 14 14 14 14 14 14 13 13 13 13 13 13 13 13 13 13 13 13 13
15 15 14 14 14 14 14 14 14 14 14 14 14 14 14 14 14 14 14 14 14 14 14 14 14 14 14 14 14 13 13 13 13 13 13 13 13 13 13 13 13 13 13
14 14 14 14 14 14 14 14 14 14 14 14 14 14 14 14 14 14 14 14 14 14 14 14 14 14 14 13 13 13 13 13 13 13 13 13 13 13 13 13 13 13 13
14 14 14 14 14 14 14 14 13 13 13 13 13 13 13 13 13 14 14 14 14 14 14 13 13 13 13 13 13 13 13 13 13 13 13 13 13 13 13 13 13 13 13
13 13 13 13 13 13 14 13 13 13 13 13 13 13 13 13 13 13 13 13 13 13 13 13 13 13 13 13 13 13 12 13 13 13 13 12 12 12 12 12 12 12 12
13 13 13 13 13 13 13 13 13 13 12 13 13 13 13 13 13 13 13 13 13 13 13 13 13 13 13 13 13 12 12 12 12 12 12 12 12 12 12 12 12 12 12
13 13 13 13 13 13 13 13 13 12 12 12 12 12 12 12 12 13 13 13 13 13 13 13 13 13 12 12 12 12 12 12 12 12 12 12 12 12 12 12 12 12 12
12 12 12 12 12 12 12 12 12 12 12 12 12 12 12 12 12 12 12 12 12 12 13 13 13 12 12 12 12 12 12 12 12 12 12 12 12 12 12 11 11 11 11
12 12 12 12 12 12 12 12 12 12 12 12 12 12 12 12 12 12 12 12 12 12 12 12 12 12 12 12 12 12 12 12 12 12 12 11 12 11 11 11 11 11 11
12 12 12 12 12 12 12 12 12 12 12 12 12 12 12 12 12 12 12 12 12 12 12 12 12 12 12 11 11 11 11 11 11 11 11 11 11 11 11 11 11 11 11
12 12 12 12 11 11 12 12 11 11 11 11 11 11 11 11 12 12 12 12 12 11 11 11 12 11 11 11 11 11 11 11 11 11 11 11 11 11 11 11 11 11 10
12 12 12 11 11 11 11 11 11 11 11 11 11 11 11 11 11 11 11 11 11 11 11 11 11 11 11 11 11 11 11 11 11 11 11 11 11 11 11 10 10 10 10
12 12 11 11 11 11 11 11 11 11 11 11 11 11 11 11 11 11 11 11 11 11 11 11 11 11 11 10 10 10 10 10 10 10 10 10 10 10 10 10 10 10 10
11 11 11 11 11 10 10 10 10 10 10 10 10 10 11 11 11 11 11 11 11 11 11 10 10 10 10 10 10 10 10 10 10 10 10 10 10 10 10 10 10 10 10
11 11 11 11 10 10 10 10 10 10 10 10 10 10 10 10 10 10 11 11 11 10 10 10 10 10 10 10 9 9 9 9 9 9 9 9 9 9 9 9 9 9 9
11 11 10 10 10 10 10 10 10 10 10 10 10 10 10 10 10 10 10 10 10 10 10 10 10 9 9 9 9 9 8 8 9 9 9 9 9 9 9 9 9 9 9
11 11 10 10 10 10 9 9 9 9 9 9 9 9 9 9 9 9 9 10 10 10 10 9 9 9 9 9 9 9 9 8 8 8 8 8 8 8 9 9 9 8 8
11 10 10 10 10 9 9 9 9 9 9 9 9 9 9 9 9 9 9 9 9 9 9 9 9 9 9 9 8 8 9 9 8 8 8 8 8 8 8 8 8 8 8
10 10 10 9 9 9 9 9 8 8 8 8 8 9 9 9 9 9 9 9 9 9 9 9 9 8 8 8 8 8 8 8 8 8 7 8 8 8 8 8 8 8 8
10 10 9 9 9 9 8 8 8 8 8 8 8 8 8 8 8 8 8 8 8 8 8 8 8 8 8 8 8 8 8 8 8 8 8 7 7 7 7 7 7 7 7
Wind_Speed
5 8 12 11 10 10 10 10 10 10 10 10 10 10 11 11 11 11 11 11 10 10 10 10 10 10 10 10 10 10 11 11 11 11 11 11 12 12 11 11 11 11 12
8 10 13 12 11 10 11 10 10 10 9 9 10 10 10 10 10 10 10 10 9 9 10 9 9 9 9 9 9 9 10 10 9 9 10 10 10 11 10 10 10 10 11
10 10 12 12 11 10 11 10 10 9 9 9 9 9 10 9 10 9 9 9 9 9 9 9 8 8 8 8 8 8 8 8 8 7 8 7 8 10 10 10 10 11 11
10 11 11 12 11 10 10 11 10 9 9 9 9 9 9 9 9 9 9 9 9 9 9 8 8 7 7 7 7 7 6 6 7 8 7 6 6 8 10 10 10 11 10
8 9 10 12 11 11 10 10 10 10 9 9 9 9 9 9 9 9 8 9 9 9 8 8 8 7 6 6 6 6 6 8 8 8 7 6 6 8 9 9 10 10 10
7 8 10 11 11 10 10 10 10 10 10 9 9 9 9 9 9 9 9 8 9 8 8 7 7 7 6 6 6 6 6 8 8 7 7 6 6 7 8 9 9 9 9
7 7 9 10 10 10 10 10 10 10 10 10 10 9 10 10 9 9 9 8 7 8 7 7 7 6 6 6 6 6 7 8 8 7 6 6 6 7 8 8 8 9 9
7 6 7 10 10 9 9 9 10 10 11 11 10 10 10 9 9 9 9 8 7 7 7 7 6 6 5 6 6 7 8 8 8 7 6 5 7 7 8 8 8 8 8
6 5 5 6 8 8 9 9 10 11 11 11 11 10 10 10 9 9 8 7 7 7 6 6 5 5 5 5 6 7 8 8 8 6 5 5 7 7 8 8 8 8 8
4 4 4 5 6 6 7 9 10 10 11 11 11 11 11 10 9 9 8 7 6 6 5 5 5 4 4 4 5 7 8 8 8 7 5 6 7 8 8 8 8 8 8
3 3 4 4 4 5 6 8 9 9 11 11 11 12 11 9 9 8 8 7 6 6 5 5 4 4 4 4 5 6 7 7 7 6 5 6 7 7 8 7 7 7 7
4 4 4 4 4 4 5 6 6 7 8 9 9 9 9 8 7 7 8 7 6 5 4 3 3 3 3 4 5 6 6 7 6 4 5 6 7 7 7 7 7 7 7
5 5 5 5 5 4 3 4 4 5 6 7 8 9 9 7 7 7 6 5 5 4 3 3 2 3 3 4 5 6 7 7 6 5 4 6 6 6 7 7 7 7 7
4 5 6 6 5 5 5 4 4 4 4 5 6 9 8 5 4 5 4 4 3 3 3 3 3 3 4 5 6 6 7 6 6 6 5 6 6 6 6 7 6 6 7
5 5 6 6 6 6 5 4 4 4 4 5 6 8 8 5 4 4 4 4 3 3 3 2 2 3 3 4 5 6 6 6 6 6 6 6 6 6 6 6 6 6 6
6 6 6 6 6 6 5 4 4 4 5 5 6 7 9 7 5 4 3 3 3 3 3 3 3 3 2 3 3 5 5 6 6 6 6 6 6 6 6 6 6 5 5
7 6 7 7 6 6 6 5 4 4 5 4 5 7 8 8 7 5 3 3 3 4 4 4 3 3 3 2 2 3 4 5 6 6 6 6 5 5 6 6 5 5 4
8 7 7 6 6 6 6 5 4 4 4 4 5 6 7 8 8 6 3 3 4 5 4 2 2 2 2 2 2 1 3 4 5 5 5 5 6 5 5 5 5 4 3
8 7 7 6 7 6 6 5 4 4 4 4 5 5 6 8 8 6 4 3 5 4 2 2 2 2 2 2 2 2 2 2 3 4 4 4 5 5 5 4 4 3 3
6 6 6 7 7 6 5 4 3 3 3 3 3 4 6 7 8 6 4 4 5 3 2 2 3 2 2 2 2 2 2 1 2 2 3 4 4 4 5 4 4 3 3
6 6 7 7 6 6 5 4 4 4 4 3 3 4 6 6 7 6 4 4 3 3 4 4 2 3 2 2 3 2 2 2 1 1 2 3 2 3 4 4 3 3 3
7 7 6 7 7 7 6 5 3 4 3 4 3 3 5 6 7 6 5 5 4 4 4 3 3 2 1 1 2 2 1 2 2 0 1 2 2 2 2 3 3 3 3
8 8 8 7 8 8 7 4 4 3 2 2 3 3 3 5 6 6 6 5 5 5 5 4 4 3 3 1 1 3 3 3 1 2 1 1 1 1 2 2 3 3 3
9 7 8 7 7 7 7 7 7 5 4 4 3 3 3 5 5 5 5 5 5 5 5 5 4 2 4 2 0 0 1 2 2 1 2 1 1 2 2 2 2 3 3
8 7 7 7 7 7 8 8 8 6 4 3 2 3 4 3 4 5 5 4 4 4 5 5 4 4 3 3 2 1 1 1 1 2 2 2 2 2 2 3 3 3 3
6 6 6 7 7 7 8 8 8 8 6 6 5 5 4 3 3 4 5 4 3 3 4 5 4 5 3 3 2 2 2 2 2 2 2 2 2 3 2 2 3 4 4
Wind_Direction
167 163 152 148 143 137 131 127 127 124 121 119 117 119 119 116 114 113 112 112 110 108 105 102 97 95 93 93 94 97 97 94 92 91 88 87 87 89 89 86 83 80 82
159 155 152 150 147 141 137 132 129 129 128 125 121 121 124 125 123 120 119 118 117 114 109 104 101 98 96 94 96 99 100 98 98 95 88 85 89 90 90 89 88 88 85
143 147 150 152 149 144 142 138 136 137 135 131 126 124 127 128 129 126 123 122 120 116 111 108 105 101 100 98 97 99 100 99 96 99 96 88 91 92 94 94 93 94 90
139 143 150 151 152 148 146 145 144 142 141 137 132 128 128 128 129 130 127 126 122 116 112 111 107 105 104 101 99 98 95 95 98 104 100 93 95 96 96 96 96 94 91
130 140 151 150 154 153 150 151 151 148 144 141 138 133 131 129 126 127 127 125 122 119 118 117 115 110 109 104 99 91 89 95 102 99 100 95 97 101 100 98 96 94 91
129 139 150 153 155 156 155 156 156 153 149 145 142 139 135 131 127 121 119 122 124 124 123 123 122 118 117 114 101 90 95 106 105 94 99 103 108 107 106 106 103 98 94
134 132 149 155 156 157 159 159 158 156 153 147 142 141 136 130 126 123 118 118 124 127 126 125 124 122 121 116 101 93 101 110 107 98 101 107 114 112 112 109 108 104 99
136 134 148 159 158 159 159 162 162 160 154 147 142 139 135 132 127 122 119 118 119 125 126 125 123 120 121 114 101 99 104 111 110 101 103 113 119 119 116 112 114 108 102
130 134 140 153 161 161 162 162 164 162 156 149 145 141 136 132 128 124 122 123 122 122 122 124 120 116 118 112 105 100 104 111 107 105 102 108 114 114 112 110 111 106 102
140 143 144 151 153 162 166 159 159 162 157 152 146 141 137 133 131 128 124 125 124 124 125 126 121 110 101 100 109 103 107 106 98 98 99 109 116 115 110 110 111 108 103
157 167 158 157 157 162 165 163 156 161 158 152 147 142 135 132 132 131 131 130 125 122 123 127 128 113 92 89 104 104 102 102 99 96 105 115 119 119 114 111 108 107 105
188 189 180 171 160 157 161 151 147 154 153 149 147 143 137 134 134 134 140 139 134 126 123 129 131 111 89 88 99 103 100 100 95 93 109 117 121 122 120 116 111 109 107
202 190 187 177 162 156 146 143 141 142 143 148 150 147 140 134 134 130 131 133 131 130 120 114 101 100 103 105 103 107 105 99 95 91 101 115 124 125 120 116 114 110 104
217 202 191 181 171 166 155 149 146 148 147 149 155 153 146 138 136 138 137 138 134 136 129 119 119 117 113 116 116 112 110 107 99 90 89 101 113 121 123 120 115 114 108
220 215 194 186 181 171 162 160 153 160 160 160 157 159 158 152 158 151 149 149 153 152 146 130 121 119 114 110 116 118 117 118 110 98 90 93 107 118 120 120 117 115 110
215 219 198 185 184 174 171 171 167 168 164 160 163 168 163 159 159 156 154 161 165 169 165 144 131 124 119 113 112 119 126 124 117 107 100 95 101 113 121 121 122 122 118
204 210 201 187 179 178 174 172 167 170 162 156 165 169 166 161 159 155 159 167 173 166 148 124 110 103 105 105 100 115 123 127 121 115 111 103 99 104 115 119 120 121 119
195 197 197 184 175 180 175 171 161 163 158 156 160 164 165 163 161 155 161 172 164 148 134 124 117 97 85 95 103 102 114 121 122 122 116 111 106 105 110 122 124 125 125
198 192 189 178 174 179 176 168 161 154 155 157 160 164 165 161 161 158 162 165 156 137 128 141 115 113 105 93 101 91 92 119 127 126 124 121 118 116 112 119 125 120 129
190 189 186 176 174 170 163 157 157 155 162 152 156 166 167 165 162 154 150 153 151 143 133 123 117 98 117 124 107 74 57 98 122 135 143 129 128 128 123 119 116 111 115
181 183 191 178 175 162 158 168 171 180 185 183 173 171 170 165 160 150 149 150 151 153 152 137 117 105 85 104 99 67 15 26 100 155 140 134 133 138 132 133 133 126 117
187 189 189 186 178 174 173 173 169 172 180 186 178 169 168 162 161 159 156 162 156 144 138 137 124 112 111 119 127 119 84 350 326 262 181 169 170 143 145 153 153 148 142
194 192 192 190 183 176 166 152 138 128 121 174 178 181 172 160 160 161 161 158 160 155 161 162 152 136 152 157 129 145 153 197 245 296 257 209 199 211 202 184 177 176 174
199 189 186 186 182 175 165 163 160 167 181 203 192 184 177 166 159 157 158 160 165 162 165 173 160 149 150 160 173 22 164 155 157 213 296 278 243 230 236 227 208 199 194
192 182 183 178 180 174 170 170 170 175 184 184 179 172 172 170 162 161 157 158 168 166 168 169 161 156 159 166 170 163 83 63 113 169 223 266 282 254 243 224 212 206 211
185 178 176 176 181 176 174 175 176 177 177 179 185 189 184 177 170 164 159 160 170 167 172 173 167 166 167 166 169 165 163 165 193 178 202 228 250 266 258 239 219 218 223
Height
1519 1520 1522 1523 1524 1525 1526 1527 1528 1528 1529 1530 1530 1531 1532 1532 1533 1533 1534 1534 1535 1535 1536 1536 1537 1537 1538 1538 1539 1539 1540 1540 1541 1541 1541 1542 1542 1542 1542 1542 1542 1542 1542
1517 1519 1521 1522 1523 1524 1525 1526 1527 1528 1529 1529 1530 1531 1532 1532 1533 1533 1534 1534 1535 1535 1536 1536 1537 1537 1538 1538 1539 1540 1540 1541 1541 1542 1542 1543 1543 1543 1543 1543 1544 1544 1544
1517 1519 1520 1521 1523 1524 1525 1525 1526 1527 1528 1529 1530 1531 1531 1532 1532 1533 1534 1534 1535 1535 1536 1536 1537 1537 1538 1539 1539 1540 1540 1541 1541 1542 1543 1543 1543 1544 1544 1544 1544 1545 1545
1517 1518 1519 1520 1522 1523 1524 1525 1526 1527 1528 1529 1529 1530 1531 1531 1532 1533 1533 1534 1535 1535 1536 1536 1537 1537 1538 1538 1539 1540 1540 1541 1541 1542 1543 1543 1544 1544 1545 1545 1545 1545 1545
1516 1517 1518 1520 1521 1522 1523 1524 1525 1526 1527 1528 1529 1530 1530 1531 1532 1532 1533 1534 1535 1535 1536 1536 1537 1537 1538 1538 1539 1539 1540 1541 1541 1542 1543 1544 1544 1544 1545 1545 1545 1546 1546
1516 1517 1518 1519 1520 1521 1522 1523 1524 1525 1526 1527 1528 1529 1530 1530 1531 1532 1533 1533 1534 1535 1535 1536 1536 1537 1538 1538 1539 1539 1540 1541 1541 1542 1543 1544 1544 1545 1545 1545 1545 1546 1546
1515 1516 1517 1518 1519 1520 1521 1522 1523 1524 1525 1526 1527 1528 1529 1530 1530 1531 1532 1533 1534 1534 1535 1535 1536 1537 1537 1538 1538 1539 1540 1541 1541 1542 1543 1543 1544 1545 1545 1545 1545 1546 1546
1514 1515 1516 1517 1518 1519 1520 1521 1522 1523 1524 1525 1526 1527 1528 1529 1530 1531 1531 1532 1533 1534 1534 1535 1535 1536 1537 1537 1538 1539 1539 1540 1541 1542 1543 1543 1544 1544 1545 1545 1545 1546 1546
1513 1514 1515 1516 1517 1518 1519 1520 1521 1522 1523 1524 1525 1526 1527 1528 1529 1530 1531 1531 1532 1533 1533 1534 1535 1535 1536 1537 1538 1538 1539 1540 1541 1542 1542 1543 1544 1544 1545 1545 1545 1545 1545
1512 1512 1513 1514 1515 1516 1517 1518 1520 1521 1522 1523 1524 1525 1527 1527 1528 1529 1530 1530 1531 1532 1533 1534 1534 1535 1535 1536 1537 1538 1539 1540 1541 1541 1542 1542 1543 1544 1544 1544 1545 1545 1545
1510 1511 1511 1512 1513 1514 1515 1516 1518 1520 1521 1522 1523 1524 1525 1526 1527 1528 1529 1530 1531 1531 1532 1533 1534 1534 1535 1535 1536 1537 1538 1539 1540 1541 1541 1542 1543 1543 1543 1544 1544 1544 1544
1508 1509 1509 1510 1511 1512 1513 1514 1516 1517 1519 1520 1521 1523 1524 1525 1526 1527 1528 1529 1530 1530 1531 1532 1533 1533 1534 1535 1536 1536 1538 1539 1540 1540 1541 1542 1542 1542 1543 1543 1543 1543 1544
1505 1506 1507 1508 1509 1510 1511 1512 1513 1515 1517 1518 1520 1521 1522 1524 1525 1526 1527 1528 1528 1529 1530 1531 1532 1532 1533 1534 1535 1535 1537 1538 1539 1540 1540 1541 1541 1542 1542 1542 1543 1543 1543
1502 1503 1504 1505 1506 1507 1508 1509 1511 1512 1514 1516 1518 1519 1520 1522 1523 1524 1525 1526 1527 1528 1529 1530 1531 1531 1532 1533 1534 1535 1536 1537 1538 1539 1539 1540 1541 1541 1541 1542 1542 1542 1542
1498 1499 1501 1502 1503 1504 1506 1507 1509 1510 1512 1514 1515 1517 1518 1519 1521 1522 1524 1525 1526 1527 1527 1528 1529 1530 1531 1532 1533 1534 1535 1536 1537 1538 1539 1539 1540 1540 1541 1541 1541 1541 1541
1494 1495 1497 1498 1500 1502 1503 1504 1506 1507 1509 1511 1513 1515 1516 1517 1519 1520 1522 1523 1524 1525 1526 1527 1527 1528 1530 1531 1532 1533 1534 1535 1536 1537 1538 1538 1539 1539 1539 1540 1540 1540 1540
1491 1492 1494 1495 1496 1498 1500 1501 1503 1505 1506 1508 1510 1512 1514 1515 1517 1518 1520 1521 1522 1523 1524 1525 1526 1527 1528 1529 1530 1531 1532 1533 1534 1535 1536 1537 1537 1538 1538 1538 1539 1539 1539
1487 1488 1489 1491 1492 1494 1496 1498 1500 1502 1503 1505 1508 1510 1511 1513 1515 1516 1517 1519 1520 1521 1522 1523 1524 1525 1526 1528 1529 1530 1531 1532 1533 1534 1535 1535 1536 1536 1537 1537 1537 1537 1537
1482 1484 1485 1487 1489 1490 1493 1494 1496 1499 1501 1502 1505 1506 1508 1510 1512 1514 1515 1516 1518 1519 1520 1521 1522 1523 1524 1526 1527 1528 1529 1530 1531 1532 1533 1534 1534 1535 1535 1535 1536 1536 1536
1478 1479 1481 1483 1485 1487 1489 1491 1493 1495 1497 1500 1501 1503 1505 1507 1509 1511 1512 1514 1515 1516 1517 1518 1520 1521 1522 1524 1525 1526 1527 1528 1530 1530 1531 1532 1532 1533 1533 1533 1534 1534 1534
1473 1475 1476 1478 1480 1483 1485 1486 1488 1490 1493 1496 1498 1499 1502 1503 1505 1507 1509 1510 1512 1513 1514 1516 1517 1518 1520 1521 1523 1524 1525 1526 1527 1528 1529 1529 1530 1531 1531 1532 1532 1532 1532
1469 1471 1472 1474 1476 1478 1480 1483 1485 1487 1489 1492 1494 1496 1498 1500 1502 1504 1505 1507 1509 1510 1511 1513 1514 1515 1517 1518 1520 1521 1523 1525 1525 1526 1526 1527 1527 1528 1529 1529 1530 1530 1529
1464 1466 1468 1469 1471 1474 1477 1479 1481 1484 1485 1488 1490 1492 1494 1496 1498 1500 1502 1504 1505 1507 1508 1510 1511 1512 1513 1515 1517 1519 1519 1519 1521 1523 1523 1524 1525 1525 1526 1526 1527 1527 1527
1460 1462 1464 1465 1468 1470 1473 1475 1477 1478 1480 1483 1486 1488 1491 1493 1495 1496 1498 1500 1502 1503 1505 1507 1508 1509 1510 1512 1514 1515 1517 1517 1518 1518 1520 1521 1522 1522 1523 1523 1524 1524 1524
1456 1458 1460 1462 1464 1466 1468 1471 1473 1475 1478 1481 1483 1485 1487 1489 1491 1493 1494 1497 1499 1500 1502 1504 1505 1506 1508 1509 1510 1511 1513 1514 1515 1515 1516 1517 1518 1519 1519 1520 1521 1521 1521
1453 1454 1456 1458 1460 1463 1465 1467 1469 1472 1474 1477 1479 1481 1483 1485 1487 1489 1491 1493 1495 1497 1499 1500 1502 1504 1505 1507 1508 1509 1510 1510 1511 1512 1513 1513 1514 1515 1516 1517 1517 1518 1518